Weather History for Storm Lake, IA

Change the Weather History Date:

Thursday, February 2, 2012

  Actual Average Record
Temperature  
Mean Temperature 38 °F -  
Max Temperature 49 °F 28 °F 53 °F (2006)
Min Temperature 27 °F 14 °F -14 °F (2001)
Degree Days  
Heating Degree Days 27    
Moisture  
Dew Point 28 °F    
Average Humidity 71    
Maximum Humidity 87    
Minimum Humidity 49    
Precipitation  
Precipitation 0.00 in - - ()
Sea Level Pressure  
Sea Level Pressure 30.21 in    
Wind  
Wind Speed 7 mph (East)    
Max Wind Speed 10 mph    
Max Gust Speed -    
Visibility 10 miles    
Events      
Averages and records for this station are not official NWS values.
T = Trace of Precipitation, MM = Missing Value Source: NWS Daily Summary

Daily Weather History Graph

Daily Weather History Graph

Search for Another Location

Airport:

Trip Planner

Search our weather history database for the weather conditions in past years. The results will help you decide how hot, cold, wet, or windy it might be!

Date:

Astronomy

Feb. 02, 2012 Rise Set
Actual Time 7:34 AM CST 5:35 PM CST
Civil Twilight 7:04 AM CST 6:05 PM CST
Nautical Twilight 6:30 AM CST 6:38 PM CST
Astronomical Twilight 5:57 AM CST 7:11 PM CST
Moon 12:44 PM CST (2/2) 3:20 AM CST (2/2)
Length of Visible Light 11h 00m
Length of Day
10h 00m
Waxing Gibbous, 74% of the Moon is Illuminated
Feb 2
Waxing Gibbous
Feb 7
Full
Feb 14
Last Quarter
Feb 21
New
Feb 29
First Quarter

Hourly Weather History & Observations

Time (CST) Temp. Windchill Dew Point Humidity Pressure Visibility Wind Dir Wind Speed Gust Speed Precip Events Conditions
12:15 AM 32.0 °F 25.6 °F 25.0 °F 75% 30.15 in 10.0 mi West 6.9 mph - N/A   Clear
12:35 AM 32.0 °F 25.6 °F 24.8 °F 75% 30.14 in 10.0 mi West 6.9 mph - N/A   Clear
12:55 AM 31.8 °F 24.6 °F 24.8 °F 75% 30.14 in 10.0 mi West 8.1 mph - N/A   Clear
1:15 AM 31.6 °F 25.1 °F 24.4 °F 75% 30.15 in 10.0 mi West 6.9 mph - N/A   Clear
1:35 AM 30.6 °F 23.8 °F 24.1 °F 77% 30.15 in 10.0 mi West 6.9 mph - N/A   Clear
1:55 AM 29.8 °F 22.2 °F 24.1 °F 79% 30.16 in 10.0 mi West 8.1 mph - N/A   Clear
2:15 AM 31.1 °F 24.5 °F 24.4 °F 76% 30.16 in 10.0 mi West 6.9 mph - N/A   Clear
2:35 AM 31.1 °F 24.5 °F 24.1 °F 75% 30.16 in 10.0 mi West 6.9 mph - N/A   Clear
2:55 AM 30.9 °F 24.3 °F 23.9 °F 75% 30.16 in 10.0 mi West 6.9 mph - N/A   Clear
3:15 AM 27.5 °F 23.6 °F 22.1 °F 80% 30.16 in 10.0 mi West 3.5 mph - N/A   Clear
3:35 AM 30.2 °F 21.9 °F 23.9 °F 77% 30.16 in 10.0 mi WNW 9.2 mph - N/A   Clear
3:55 AM 30.6 °F 22.4 °F 23.9 °F 76% 30.16 in 10.0 mi WNW 9.2 mph - N/A   Clear
4:15 AM 30.2 °F 21.9 °F 23.7 °F 77% 30.16 in 10.0 mi WNW 9.2 mph - N/A   Clear
4:35 AM 29.1 °F 21.3 °F 23.4 °F 79% 30.17 in 10.0 mi WNW 8.1 mph - N/A   Clear
4:55 AM 29.3 °F 20.8 °F 23.4 °F 78% 30.18 in 10.0 mi WNW 9.2 mph - N/A   Clear
5:15 AM 28.2 °F 19.5 °F 23.0 °F 81% 30.18 in 10.0 mi WNW 9.2 mph - N/A   Clear
5:35 AM 29.1 °F 23.0 °F 23.4 °F 79% 30.19 in 10.0 mi WNW 5.8 mph - N/A   Clear
5:55 AM 31.5 °F 26.8 °F 24.3 °F 75% 30.19 in 10.0 mi NW 4.6 mph - N/A   Clear
6:15 AM 31.1 °F - 23.0 °F 72% 30.19 in 10.0 mi Calm Calm - N/A   Clear
6:35 AM 28.2 °F 24.4 °F 23.0 °F 81% 30.20 in 10.0 mi NNW 3.5 mph - N/A   Clear
6:55 AM 30.0 °F 26.5 °F 24.6 °F 80% 30.21 in 10.0 mi NNW 3.5 mph - N/A   Clear
7:15 AM 31.3 °F 27.9 °F 25.0 °F 77% 30.21 in 10.0 mi North 3.5 mph - N/A   Clear
7:35 AM 28.0 °F - 22.8 °F 81% 30.22 in 10.0 mi Calm Calm - N/A   Clear
7:55 AM 28.6 °F 24.8 °F 23.5 °F 81% 30.23 in 10.0 mi West 3.5 mph - N/A   Clear
8:15 AM 29.5 °F - 24.3 °F 81% 30.23 in 10.0 mi Calm Calm - N/A   Clear
8:35 AM 29.3 °F - 24.8 °F 83% 30.23 in 10.0 mi Calm Calm - N/A   Clear
8:55 AM 32.0 °F - 26.1 °F 79% 30.24 in 10.0 mi Calm Calm - N/A   Clear
9:15 AM 34.0 °F - 28.6 °F 81% 30.24 in 10.0 mi Calm Calm - N/A   Clear
9:35 AM 36.1 °F - 29.3 °F 76% 30.24 in 10.0 mi Calm Calm - N/A   Clear
9:55 AM 37.8 °F - 30.4 °F 75% 30.25 in 10.0 mi Calm Calm - N/A   Clear
10:15 AM 40.5 °F 38.4 °F 32.2 °F 72% 30.25 in 10.0 mi SE 3.5 mph - N/A   Clear
10:35 AM 41.5 °F 37.1 °F 32.0 °F 69% 30.25 in 10.0 mi ESE 6.9 mph - N/A   Clear
10:55 AM 42.1 °F 37.7 °F 31.8 °F 67% 30.25 in 10.0 mi ESE 6.9 mph - N/A   Clear
11:15 AM 42.1 °F 38.4 °F 31.6 °F 67% 30.25 in 10.0 mi ESE 5.8 mph - N/A   Clear
11:35 AM 43.7 °F 39.7 °F 32.7 °F 65% 30.25 in 10.0 mi ESE 6.9 mph - N/A   Clear
11:55 AM 45.5 °F 41.3 °F 32.0 °F 59% 30.24 in 10.0 mi SE 8.1 mph - N/A   Clear
12:15 PM 46.4 °F 41.9 °F 31.5 °F 56% 30.24 in 10.0 mi SE 9.2 mph - N/A   Clear
12:35 PM 47.5 °F - 31.3 °F 53% 30.23 in 10.0 mi SE 8.1 mph - N/A   Clear
12:55 PM 47.5 °F - 30.4 °F 52% 30.23 in 10.0 mi ESE 8.1 mph - N/A   Clear
1:15 PM 46.6 °F - 30.2 °F 53% 30.22 in 10.0 mi East 8.1 mph - N/A   Clear
1:35 PM 46.4 °F 41.9 °F 29.8 °F 53% 30.22 in 10.0 mi East 9.2 mph - N/A   Clear
1:55 PM 47.7 °F - 30.6 °F 52% 30.21 in 10.0 mi East 9.2 mph - N/A   Clear
2:15 PM 49.1 °F - 30.4 °F 49% 30.22 in 10.0 mi SE 9.2 mph - N/A   Clear
2:35 PM 48.6 °F - 30.0 °F 49% 30.22 in 10.0 mi East 9.2 mph - N/A   Clear
2:55 PM 48.4 °F - 30.7 °F 51% 30.22 in 10.0 mi ESE 10.4 mph - N/A   Clear
3:15 PM 48.0 °F - 30.6 °F 51% 30.22 in 10.0 mi East 8.1 mph - N/A   Clear
3:35 PM 48.2 °F - 30.4 °F 50% 30.22 in 10.0 mi East 10.4 mph - N/A   Clear
3:55 PM 48.2 °F - 30.7 °F 51% 30.22 in 10.0 mi East 10.4 mph - N/A   Clear
4:15 PM 46.2 °F 41.7 °F 30.6 °F 54% 30.22 in 10.0 mi ESE 9.2 mph - N/A   Clear
4:35 PM 44.4 °F 39.5 °F 30.7 °F 59% 30.22 in 10.0 mi East 9.2 mph - N/A   Clear
4:55 PM 44.6 °F 39.2 °F 31.1 °F 59% 30.22 in 10.0 mi East 10.4 mph - N/A   Clear
5:15 PM 41.9 °F 36.3 °F 31.1 °F 66% 30.22 in 10.0 mi East 9.2 mph - N/A   Clear
5:35 PM 39.9 °F 33.4 °F 32.0 °F 73% 30.22 in 10.0 mi East 10.4 mph - N/A   Clear
5:55 PM 38.1 °F 31.2 °F 32.0 °F 79% 30.23 in 10.0 mi East 10.4 mph - N/A   Clear
6:15 PM 37.4 °F 30.3 °F 32.0 °F 81% 30.23 in 10.0 mi East 10.4 mph - N/A   Clear
6:35 PM 37.4 °F 30.3 °F 32.2 °F 81% 30.23 in 10.0 mi East 10.4 mph - N/A   Clear
6:55 PM 36.1 °F 28.7 °F 32.0 °F 85% 30.24 in 10.0 mi East 10.4 mph - N/A   Clear
7:15 PM 35.1 °F 28.6 °F 31.1 °F 85% 30.24 in 10.0 mi East 8.1 mph - N/A   Clear
7:35 PM 34.3 °F 27.0 °F 30.9 °F 87% 30.24 in 10.0 mi East 9.2 mph - N/A   Clear
7:55 PM 34.9 °F 27.1 °F 30.4 °F 84% 30.24 in 10.0 mi ESE 10.4 mph - N/A   Clear
8:15 PM 34.9 °F 27.7 °F 30.0 °F 82% 30.24 in 10.0 mi East 9.2 mph - N/A   Clear
8:35 PM 34.0 °F 28.0 °F 29.8 °F 85% 30.25 in 10.0 mi East 6.9 mph - N/A   Clear
8:55 PM 32.9 °F 26.7 °F 29.3 °F 87% 30.26 in 10.0 mi East 6.9 mph - N/A   Clear
9:15 PM 34.0 °F 26.6 °F 30.9 °F 89% 30.26 in 10.0 mi ESE 9.2 mph - N/A   Clear
9:35 PM 35.4 °F 28.4 °F 32.0 °F 87% 30.27 in 10.0 mi SE 9.2 mph - N/A   Clear
9:55 PM 34.2 °F 27.5 °F 31.3 °F 89% 30.28 in 10.0 mi ESE 8.1 mph - N/A   Clear
10:15 PM 33.8 °F 27.7 °F 31.1 °F 90% 30.28 in 10.0 mi ESE 6.9 mph - N/A   Clear
10:35 PM 33.3 °F 27.1 °F 30.9 °F 91% 30.29 in 10.0 mi SE 6.9 mph - N/A   Clear
10:55 PM 32.5 °F 26.2 °F 30.7 °F 93% 30.29 in 10.0 mi ESE 6.9 mph - N/A   Clear
11:15 PM 33.6 °F 26.8 °F 31.1 °F 90% 30.29 in 10.0 mi ESE 8.1 mph - N/A   Clear
11:35 PM 33.3 °F 27.1 °F 30.9 °F 91% 30.30 in 10.0 mi ENE 6.9 mph - N/A   Scattered Clouds
11:55 PM 32.4 °F 24.6 °F 30.9 °F 94% 30.29 in 10.0 mi ENE 9.2 mph - N/A   Scattered Clouds